Station Historical Data
Daily Summary for February 26, 2017 Units:  English    Metric   Both
« Previous Day
Next Day »
Daily Weekly Monthly Yearly Custom
  High: Low: Average:
Temperature: 45.5 °F 32.2 °F 38 °F
Dew Point: 35.0 °F 27.3 °F 31.7 °F
Humidity: 92 % 60 % 78 %
Wind Speed: 16.0 mph 0.0 mph 5.5 mph
Wind Gust: 20.0 mph - -
Wind:- - SSE
Pressure: 30.07 in 29.92 in -
Precipitation: 0.00 in    
Historical Graphs
 
 
Tabular Data for February 26, 2017
Time Temperature Dew Point Pressure Wind Wind Speed Wind Gust Humidity Rainfall Rate (Hourly) solar
00:03 35.3 °F 31.2 °F 30.07 in ESE 4.0 mph 12.0 mph 85 % 0.00 in 0.00 W/m2
00:08 35.3 °F 31.2 °F 30.07 in ESE 4.0 mph 12.0 mph 85 % 0.00 in 0.00 W/m2
00:13 35.2 °F 31.1 °F 30.07 in Calm   13.0 mph 85 % 0.00 in 0.00 W/m2
00:18 35.2 °F 31.1 °F 30.07 in East 5.0 mph 12.0 mph 85 % 0.00 in 0.00 W/m2
00:23 35.2 °F 31.1 °F 30.07 in ESE 7.0 mph 13.0 mph 85 % 0.00 in 0.00 W/m2
00:28 35.2 °F 30.9 °F 30.07 in ESE 6.0 mph 11.0 mph 84 % 0.00 in 0.00 W/m2
00:33 35.2 °F 30.9 °F 30.07 in ESE 6.0 mph 16.0 mph 84 % 0.00 in 0.00 W/m2
00:38 35.2 °F 30.9 °F 30.07 in East 6.0 mph 13.0 mph 84 % 0.00 in 0.00 W/m2
00:43 35.1 °F 30.8 °F 30.07 in ESE 4.0 mph 11.0 mph 84 % 0.00 in 0.00 W/m2
00:48 35.1 °F 30.8 °F 30.06 in East 2.0 mph 14.0 mph 84 % 0.00 in 0.00 W/m2
00:53 35.1 °F 30.8 °F 30.06 in ESE 9.0 mph 12.0 mph 84 % 0.00 in 0.00 W/m2
00:58 35.1 °F 30.8 °F 30.06 in East 5.0 mph 13.0 mph 84 % 0.00 in 0.00 W/m2
01:03 35.1 °F 30.8 °F 30.06 in East 11.0 mph 13.0 mph 84 % 0.00 in 0.00 W/m2
01:08 35.1 °F 30.5 °F 30.05 in East 2.0 mph 14.0 mph 83 % 0.00 in 0.00 W/m2
01:13 35.1 °F 30.5 °F 30.06 in ESE 12.0 mph 13.0 mph 83 % 0.00 in 0.00 W/m2
01:18 35.1 °F 30.5 °F 30.06 in Calm   14.0 mph 83 % 0.00 in 0.00 W/m2
01:23 35.1 °F 30.5 °F 30.05 in East 12.0 mph 12.0 mph 83 % 0.00 in 0.00 W/m2
01:29 35.1 °F 30.5 °F 30.05 in ESE 6.0 mph 15.0 mph 83 % 0.00 in 0.00 W/m2
01:33 35.0 °F 30.4 °F 30.05 in ESE 11.0 mph 15.0 mph 83 % 0.00 in 0.00 W/m2
01:38 35.0 °F 30.4 °F 30.05 in ESE 11.0 mph 16.0 mph 83 % 0.00 in 0.00 W/m2
01:43 34.9 °F 30.3 °F 30.05 in East 9.0 mph 13.0 mph 83 % 0.00 in 0.00 W/m2
01:48 34.9 °F 30.6 °F 30.05 in ESE 6.0 mph 14.0 mph 84 % 0.00 in 0.00 W/m2
01:53 34.9 °F 30.3 °F 30.04 in ESE 7.0 mph 14.0 mph 83 % 0.00 in 0.00 W/m2
01:54 34.8 °F 30.2 °F 30.04 in ESE 7.0 mph 14.0 mph 83 % 0.00 in 0.00 W/m2
01:59 34.8 °F 30.2 °F 30.04 in East 6.0 mph 14.0 mph 83 % 0.00 in 0.00 W/m2
02:04 34.8 °F 30.2 °F 30.04 in East 8.0 mph 13.0 mph 83 % 0.00 in 0.00 W/m2
02:09 34.7 °F 30.1 °F 30.04 in ESE 11.0 mph 16.0 mph 83 % 0.00 in 0.00 W/m2
02:14 34.7 °F 30.1 °F 30.03 in ESE 14.0 mph 15.0 mph 83 % 0.00 in 0.00 W/m2
02:19 34.6 °F 30.0 °F 30.03 in ESE 7.0 mph 18.0 mph 83 % 0.00 in 0.00 W/m2
02:24 34.6 °F 29.7 °F 30.03 in ESE 9.0 mph 18.0 mph 82 % 0.00 in 0.00 W/m2
02:29 34.6 °F 29.7 °F 30.03 in East 6.0 mph 18.0 mph 82 % 0.00 in 0.00 W/m2
02:34 34.6 °F 29.7 °F 30.03 in East 6.0 mph 13.0 mph 82 % 0.00 in 0.00 W/m2
02:39 34.5 °F 29.9 °F 30.03 in ESE 6.0 mph 14.0 mph 83 % 0.00 in 0.00 W/m2
02:44 34.4 °F 29.8 °F 30.03 in ESE 2.0 mph 13.0 mph 83 % 0.00 in 0.00 W/m2
02:49 34.3 °F 29.7 °F 30.03 in East 9.0 mph 14.0 mph 83 % 0.00 in 0.00 W/m2
02:54 34.3 °F 29.4 °F 30.02 in ESE 2.0 mph 12.0 mph 82 % 0.00 in 0.00 W/m2
02:59 34.2 °F 29.3 °F 30.02 in ESE 13.0 mph 14.0 mph 82 % 0.00 in 0.00 W/m2
03:04 34.2 °F 29.3 °F 30.02 in ESE 4.0 mph 15.0 mph 82 % 0.00 in 0.00 W/m2
03:09 34.1 °F 29.2 °F 30.03 in ESE 9.0 mph 13.0 mph 82 % 0.00 in 0.00 W/m2
03:14 34.1 °F 29.2 °F 30.03 in ESE 9.0 mph 15.0 mph 82 % 0.00 in 0.00 W/m2
03:19 34.1 °F 28.9 °F 30.03 in ESE 7.0 mph 14.0 mph 81 % 0.00 in 0.00 W/m2
03:24 34.1 °F 28.9 °F 30.02 in East 4.0 mph 12.0 mph 81 % 0.00 in 0.00 W/m2
03:29 34.1 °F 28.9 °F 30.02 in ESE 8.0 mph 11.0 mph 81 % 0.00 in 0.00 W/m2
03:34 34.1 °F 28.9 °F 30.02 in East 7.0 mph 13.0 mph 81 % 0.00 in 0.00 W/m2
03:39 34.1 °F 28.9 °F 30.02 in East 1.0 mph 12.0 mph 81 % 0.00 in 0.00 W/m2
03:44 34.0 °F 28.8 °F 30.02 in East 9.0 mph 13.0 mph 81 % 0.00 in 0.00 W/m2
03:49 34.0 °F 29.1 °F 30.02 in ESE 2.0 mph 11.0 mph 82 % 0.00 in 0.00 W/m2
03:54 33.9 °F 29.0 °F 30.02 in ESE 8.0 mph 12.0 mph 82 % 0.00 in 0.00 W/m2
03:59 33.8 °F 28.9 °F 30.02 in East 5.0 mph 12.0 mph 82 % 0.00 in 0.00 W/m2
04:04 33.8 °F 28.9 °F 30.02 in ESE 8.0 mph 13.0 mph 82 % 0.00 in 0.00 W/m2
04:09 33.7 °F 28.8 °F 30.02 in ESE 5.0 mph 11.0 mph 82 % 0.00 in 0.00 W/m2
04:14 33.7 °F 28.8 °F 30.01 in ESE 4.0 mph 12.0 mph 82 % 0.00 in 0.00 W/m2
04:19 33.7 °F 28.8 °F 30.02 in ESE 7.0 mph 11.0 mph 82 % 0.00 in 0.00 W/m2
04:24 33.6 °F 28.7 °F 30.01 in ESE 4.0 mph 8.0 mph 82 % 0.00 in 0.00 W/m2
04:29 33.5 °F 28.6 °F 30.01 in ESE 9.0 mph 13.0 mph 82 % 0.00 in 0.00 W/m2
04:34 33.5 °F 28.6 °F 30.01 in East 12.0 mph 13.0 mph 82 % 0.00 in 0.00 W/m2
04:39 33.4 °F 28.5 °F 30.01 in Calm   9.0 mph 82 % 0.00 in 0.00 W/m2
04:44 33.4 °F 28.5 °F 30.01 in ESE 5.0 mph 14.0 mph 82 % 0.00 in 0.00 W/m2
04:49 33.4 °F 28.5 °F 30.01 in East 6.0 mph 13.0 mph 82 % 0.00 in 0.00 W/m2
04:54 33.3 °F 28.1 °F 30.01 in East 9.0 mph 12.0 mph 81 % 0.00 in 0.00 W/m2
04:59 33.3 °F 28.1 °F 30.01 in East 2.0 mph 12.0 mph 81 % 0.00 in 0.00 W/m2
05:01 33.2 °F 28.0 °F 30.01 in East 5.0 mph 11.0 mph 81 % 0.00 in 0.00 W/m2
05:06 33.2 °F 28.0 °F 30.01 in East 7.0 mph 12.0 mph 81 % 0.00 in 0.00 W/m2
05:11 33.2 °F 28.3 °F 30.01 in East 5.0 mph 8.0 mph 82 % 0.00 in 0.00 W/m2
05:12 33.2 °F 28.3 °F 30.01 in ESE 11.0 mph 13.0 mph 82 % 0.00 in 0.00 W/m2
05:17 33.1 °F 27.9 °F 30.01 in ESE 5.0 mph 8.0 mph 81 % 0.00 in 0.00 W/m2
05:22 33.0 °F 28.1 °F 30.01 in East 9.0 mph 14.0 mph 82 % 0.00 in 0.00 W/m2
05:27 33.0 °F 28.1 °F 30.01 in ESE 2.0 mph 18.0 mph 82 % 0.00 in 0.00 W/m2
05:32 32.9 °F 28.0 °F 30.01 in ESE 11.0 mph 13.0 mph 82 % 0.00 in 0.00 W/m2
05:37 32.9 °F 28.0 °F 30.01 in ESE 4.0 mph 9.0 mph 82 % 0.00 in 0.00 W/m2
05:42 32.8 °F 27.6 °F 30.01 in East 9.0 mph 14.0 mph 81 % 0.00 in 0.00 W/m2
05:47 32.8 °F 27.6 °F 30.01 in East 7.0 mph 11.0 mph 81 % 0.00 in 0.00 W/m2
05:52 32.9 °F 27.7 °F 30.01 in ESE 11.0 mph 12.0 mph 81 % 0.00 in 0.00 W/m2
05:57 32.9 °F 28.0 °F 30.01 in East 5.0 mph 16.0 mph 82 % 0.00 in 0.00 W/m2
06:02 32.8 °F 27.9 °F 30.01 in ESE 5.0 mph 11.0 mph 82 % 0.00 in 0.00 W/m2
06:07 32.8 °F 27.9 °F 30.01 in ESE 4.0 mph 13.0 mph 82 % 0.00 in 0.00 W/m2
06:12 32.7 °F 27.5 °F 30.01 in ESE 4.0 mph 12.0 mph 81 % 0.00 in 0.00 W/m2
06:17 32.7 °F 27.8 °F 30.01 in ESE 5.0 mph 9.0 mph 82 % 0.00 in 0.00 W/m2
06:22 32.6 °F 27.7 °F 30.01 in ESE 11.0 mph 12.0 mph 82 % 0.00 in 0.00 W/m2
06:27 32.6 °F 27.4 °F 30.01 in ESE 1.0 mph 8.0 mph 81 % 0.00 in 0.00 W/m2
06:32 32.6 °F 27.7 °F 30.01 in ESE 7.0 mph 12.0 mph 82 % 0.00 in 0.00 W/m2
06:37 32.5 °F 27.6 °F 30.02 in ESE 6.0 mph 11.0 mph 82 % 0.00 in 5.00 W/m2
06:42 32.5 °F 27.3 °F 30.02 in ESE 4.0 mph 11.0 mph 81 % 0.00 in 7.00 W/m2
06:47 32.4 °F 27.5 °F 30.02 in ESE 4.0 mph 12.0 mph 82 % 0.00 in 11.00 W/m2
06:52 32.4 °F 27.5 °F 30.02 in ESE 5.0 mph 12.0 mph 82 % 0.00 in 14.00 W/m2
06:57 32.3 °F 27.4 °F 30.02 in ESE 7.0 mph 12.0 mph 82 % 0.00 in 18.00 W/m2
07:02 32.3 °F 27.4 °F 30.02 in ESE 8.0 mph 8.0 mph 82 % 0.00 in 21.00 W/m2
07:07 32.3 °F 27.4 °F 30.02 in ESE 4.0 mph 12.0 mph 82 % 0.00 in 26.00 W/m2
07:12 32.2 °F 27.6 °F 30.02 in ESE 6.0 mph 9.0 mph 83 % 0.00 in 40.00 W/m2
07:17 32.2 °F 27.3 °F 30.02 in ESE 4.0 mph 9.0 mph 82 % 0.00 in 54.00 W/m2
07:22 32.2 °F 27.3 °F 30.02 in SE 5.0 mph 11.0 mph 82 % 0.00 in 67.00 W/m2
07:27 32.3 °F 27.4 °F 30.02 in ESE 7.0 mph 12.0 mph 82 % 0.00 in 86.00 W/m2
07:32 32.3 °F 27.4 °F 30.02 in ESE 4.0 mph 8.0 mph 82 % 0.00 in 100.00 W/m2
07:37 32.5 °F 27.6 °F 30.02 in ESE 6.0 mph 13.0 mph 82 % 0.00 in 125.00 W/m2
07:42 32.6 °F 27.7 °F 30.03 in SE 4.0 mph 9.0 mph 82 % 0.00 in 135.00 W/m2
07:47 32.7 °F 27.5 °F 30.03 in ESE 7.0 mph 13.0 mph 81 % 0.00 in 158.00 W/m2
07:52 32.9 °F 28.0 °F 30.03 in ESE 4.0 mph 11.0 mph 82 % 0.00 in 183.00 W/m2
07:57 33.0 °F 27.8 °F 30.03 in ESE 5.0 mph 9.0 mph 81 % 0.00 in 206.00 W/m2
08:02 33.1 °F 27.9 °F 30.03 in ESE 5.0 mph 12.0 mph 81 % 0.00 in 225.00 W/m2
08:07 33.3 °F 28.4 °F 30.03 in SE 4.0 mph 12.0 mph 82 % 0.00 in 248.00 W/m2
08:12 33.5 °F 28.6 °F 30.03 in Calm   9.0 mph 82 % 0.00 in 269.00 W/m2
08:17 33.7 °F 28.8 °F 30.04 in Calm     82 % 0.00 in 292.00 W/m2
08:22 33.9 °F 29.0 °F 30.04 in Calm   12.0 mph 82 % 0.00 in 309.00 W/m2
08:27 34.1 °F 28.9 °F 30.04 in Calm     81 % 0.00 in 329.00 W/m2
08:32 34.3 °F 29.1 °F 30.04 in Calm     81 % 0.00 in 345.00 W/m2
08:37 34.6 °F 29.4 °F 30.04 in SE 6.0 mph 10.0 mph 81 % 0.00 in 359.00 W/m2
08:42 34.8 °F 29.3 °F 30.04 in SSE 7.0 mph 8.0 mph 80 % 0.00 in 378.00 W/m2
08:47 35.1 °F 29.3 °F 30.04 in SSE 7.0 mph 12.0 mph 79 % 0.00 in 392.00 W/m2
08:52 35.4 °F 29.5 °F 30.04 in SSE 8.0 mph 9.0 mph 79 % 0.00 in 410.00 W/m2
08:57 35.7 °F 29.8 °F 30.04 in SSE 6.0 mph 9.0 mph 79 % 0.00 in 422.00 W/m2
09:02 36.1 °F 30.2 °F 30.05 in SE 9.0 mph 14.0 mph 79 % 0.00 in 434.00 W/m2
09:07 36.4 °F 30.5 °F 30.04 in SE 7.0 mph 9.0 mph 79 % 0.00 in 450.00 W/m2
09:12 36.7 °F 30.8 °F 30.04 in Calm   9.0 mph 79 % 0.00 in 461.00 W/m2
09:17 37.0 °F 30.8 °F 30.05 in South 6.0 mph 9.0 mph 78 % 0.00 in 478.00 W/m2
09:22 37.3 °F 30.8 °F 30.05 in SSE 8.0 mph 8.0 mph 77 % 0.00 in 494.00 W/m2
09:24 37.3 °F 30.8 °F 30.04 in SSE 5.0 mph 9.0 mph 77 % 0.00 in 496.00 W/m2
09:29 37.6 °F 31.4 °F 30.05 in Calm   10.0 mph 78 % 0.00 in 508.00 W/m2
09:34 37.8 °F 31.6 °F 30.05 in SSW 6.0 mph 11.0 mph 78 % 0.00 in 520.00 W/m2
09:39 38.0 °F 31.8 °F 30.05 in South 8.0 mph 13.0 mph 78 % 0.00 in 536.00 W/m2
09:44 38.3 °F 31.7 °F 30.05 in South 9.0 mph 14.0 mph 77 % 0.00 in 543.00 W/m2
09:49 38.5 °F 31.6 °F 30.05 in South 7.0 mph 12.0 mph 76 % 0.00 in 559.00 W/m2
09:54 38.7 °F 31.8 °F 30.05 in SSW 8.0 mph 12.0 mph 76 % 0.00 in 570.00 W/m2
09:59 38.9 °F 32.0 °F 30.05 in SW 7.0 mph 11.0 mph 76 % 0.00 in 584.00 W/m2
10:04 39.1 °F 32.2 °F 30.05 in SSE 8.0 mph 11.0 mph 76 % 0.00 in 592.00 W/m2
10:09 39.3 °F 32.4 °F 30.05 in South 6.0 mph 11.0 mph 76 % 0.00 in 605.00 W/m2
10:14 39.5 °F 32.2 °F 30.04 in SSE 8.0 mph 11.0 mph 75 % 0.00 in 613.00 W/m2
10:19 39.8 °F 33.2 °F 30.04 in South 1.0 mph 7.0 mph 77 % 0.00 in 643.00 W/m2
10:24 40.1 °F 33.5 °F 30.04 in Calm   8.0 mph 77 % 0.00 in 636.00 W/m2
10:29 40.4 °F 33.1 °F 30.04 in South 1.0 mph 8.0 mph 75 % 0.00 in 671.00 W/m2
10:34 40.8 °F 33.5 °F 30.04 in SSW 6.0 mph 9.0 mph 75 % 0.00 in 656.00 W/m2
10:39 41.2 °F 33.5 °F 30.04 in SW 5.0 mph 13.0 mph 74 % 0.00 in 686.00 W/m2
10:44 41.6 °F 33.9 °F 30.04 in South 7.0 mph 11.0 mph 74 % 0.00 in 687.00 W/m2
10:49 41.9 °F 34.9 °F 30.04 in South 4.0 mph 9.0 mph 76 % 0.00 in 703.00 W/m2
10:54 42.3 °F 34.3 °F 30.04 in Calm   10.0 mph 73 % 0.00 in 448.00 W/m2
11:00 42.5 °F 34.1 °F 30.04 in Calm   11.0 mph 72 % 0.00 in 162.00 W/m2
11:05 42.6 °F 33.9 °F 30.04 in Calm   12.0 mph 71 % 0.00 in 174.00 W/m2
11:10 42.6 °F 34.6 °F 30.03 in SW 1.0 mph 11.0 mph 73 % 0.00 in 805.00 W/m2
11:15 42.7 °F 33.6 °F 30.04 in Calm   15.0 mph 70 % 0.00 in 814.00 W/m2
11:20 43.0 °F 34.2 °F 30.04 in SSE 8.0 mph 10.0 mph 71 % 0.00 in 258.00 W/m2
11:25 43.3 °F 34.5 °F 30.03 in SSW 8.0 mph 14.0 mph 71 % 0.00 in 733.00 W/m2
11:30 43.6 °F 34.8 °F 30.04 in SSW 8.0 mph 14.0 mph 71 % 0.00 in 831.00 W/m2
11:35 43.7 °F 34.6 °F 30.04 in SSW 10.0 mph 15.0 mph 70 % 0.00 in 800.00 W/m2
11:40 43.8 °F 34.3 °F 30.03 in South 7.0 mph 16.0 mph 69 % 0.00 in 817.00 W/m2
11:45 43.8 °F 34.7 °F 30.03 in Calm   14.0 mph 70 % 0.00 in 884.00 W/m2
11:50 43.9 °F 34.8 °F 30.03 in South 6.0 mph 13.0 mph 70 % 0.00 in 909.00 W/m2
11:55 43.8 °F 34.3 °F 30.03 in Calm   10.0 mph 69 % 0.00 in 204.00 W/m2
12:00 43.6 °F 34.1 °F 30.03 in SW 6.0 mph 10.0 mph 69 % 0.00 in 239.00 W/m2
12:05 43.3 °F 34.2 °F 30.03 in Calm   10.0 mph 70 % 0.00 in 872.00 W/m2
12:10 43.2 °F 34.5 °F 30.02 in SW 9.0 mph 14.0 mph 71 % 0.00 in 898.00 W/m2
12:15 43.3 °F 34.5 °F 30.02 in Calm   11.0 mph 71 % 0.00 in 875.00 W/m2
12:20 43.5 °F 34.4 °F 30.02 in South 7.0 mph 18.0 mph 70 % 0.00 in 830.00 W/m2
12:25 43.7 °F 34.2 °F 30.02 in South 1.0 mph 11.0 mph 69 % 0.00 in 875.00 W/m2
12:30 44.0 °F 34.5 °F 30.01 in SSE 6.0 mph 15.0 mph 69 % 0.00 in 186.00 W/m2
12:35 44.1 °F 33.9 °F 30.01 in SW 7.0 mph 12.0 mph 67 % 0.00 in 188.00 W/m2
12:40 44.2 °F 34.0 °F 30.01 in WSW 3.0 mph 9.0 mph 67 % 0.00 in 276.00 W/m2
12:45 44.1 °F 35.0 °F 30.01 in WSW 10.0 mph 16.0 mph 70 % 0.00 in 638.00 W/m2
12:50 44.1 °F 34.2 °F 30.00 in South 5.0 mph 13.0 mph 68 % 0.00 in 877.00 W/m2
12:55 44.2 °F 34.7 °F 30.00 in Calm   10.0 mph 69 % 0.00 in 872.00 W/m2
13:00 44.4 °F 34.1 °F 30.00 in Calm   14.0 mph 67 % 0.00 in 847.00 W/m2
13:05 44.5 °F 34.6 °F 29.99 in South 9.0 mph 14.0 mph 68 % 0.00 in 211.00 W/m2
13:10 44.5 °F 34.2 °F 29.99 in SW 8.0 mph 12.0 mph 67 % 0.00 in 241.00 W/m2
13:15 44.5 °F 35.0 °F 29.99 in Calm   11.0 mph 69 % 0.00 in 299.00 W/m2
13:20 44.4 °F 34.9 °F 29.99 in WSW 7.0 mph 10.0 mph 69 % 0.00 in 886.00 W/m2
13:25 44.5 °F 33.5 °F 29.98 in Calm   16.0 mph 65 % 0.00 in 773.00 W/m2
13:30 44.8 °F 33.8 °F 29.98 in South 6.0 mph 14.0 mph 65 % 0.00 in 737.00 W/m2
13:35 45.1 °F 33.3 °F 29.98 in Calm   14.0 mph 63 % 0.00 in 788.00 W/m2
13:40 45.3 °F 33.9 °F 29.98 in SW 7.0 mph 14.0 mph 64 % 0.00 in 744.00 W/m2
13:45 45.4 °F 33.6 °F 29.98 in SSW 7.0 mph 18.0 mph 63 % 0.00 in 710.00 W/m2
13:50 45.5 °F 33.7 °F 29.97 in SSW 7.0 mph 10.0 mph 63 % 0.00 in 712.00 W/m2
13:55 45.4 °F 33.6 °F 29.96 in SW 6.0 mph 13.0 mph 63 % 0.00 in 682.00 W/m2
14:00 45.3 °F 33.1 °F 29.97 in South 11.0 mph 16.0 mph 62 % 0.00 in 656.00 W/m2
14:05 45.1 °F 32.9 °F 29.96 in SSW 10.0 mph 17.0 mph 62 % 0.00 in 647.00 W/m2
14:10 45.0 °F 32.4 °F 29.96 in SSE 8.0 mph 17.0 mph 61 % 0.00 in 626.00 W/m2
14:15 45.0 °F 32.8 °F 29.96 in SSW 1.0 mph 19.0 mph 62 % 0.00 in 633.00 W/m2
14:20 44.8 °F 33.0 °F 29.96 in SSE 10.0 mph 17.0 mph 63 % 0.00 in 631.00 W/m2
14:25 44.7 °F 32.9 °F 29.96 in SW 7.0 mph 15.0 mph 63 % 0.00 in 605.00 W/m2
14:30 44.7 °F 32.9 °F 29.96 in SSE 11.0 mph 15.0 mph 63 % 0.00 in 584.00 W/m2
14:35 44.7 °F 31.7 °F 29.95 in Calm   11.0 mph 60 % 0.00 in 573.00 W/m2
14:40 44.8 °F 31.8 °F 29.95 in SW 4.0 mph 16.0 mph 60 % 0.00 in 561.00 W/m2
14:45 44.8 °F 32.2 °F 29.96 in Calm   18.0 mph 61 % 0.00 in 563.00 W/m2
14:50 44.8 °F 32.6 °F 29.96 in West 7.0 mph 13.0 mph 62 % 0.00 in 543.00 W/m2
14:55 44.9 °F 32.7 °F 29.96 in Calm   17.0 mph 62 % 0.00 in 534.00 W/m2
15:00 44.8 °F 32.2 °F 29.96 in Calm   12.0 mph 61 % 0.00 in 111.00 W/m2
15:05 44.7 °F 32.1 °F 29.95 in Calm   12.0 mph 61 % 0.00 in 512.00 W/m2
15:10 44.7 °F 32.1 °F 29.95 in WSW 7.0 mph 13.0 mph 61 % 0.00 in 360.00 W/m2
15:15 44.6 °F 32.4 °F 29.95 in SW 13.0 mph 15.0 mph 62 % 0.00 in 262.00 W/m2
15:20 44.4 °F 32.2 °F 29.95 in SW 3.0 mph 13.0 mph 62 % 0.00 in 276.00 W/m2
15:25 44.1 °F 31.1 °F 29.95 in Calm   13.0 mph 60 % 0.00 in 229.00 W/m2
15:30 43.8 °F 30.8 °F 29.95 in Calm   16.0 mph 60 % 0.00 in 229.00 W/m2
15:35 43.6 °F 31.5 °F 29.95 in Calm   13.0 mph 62 % 0.00 in 251.00 W/m2
15:40 43.4 °F 31.3 °F 29.96 in Calm   12.0 mph 62 % 0.00 in 229.00 W/m2
15:45 43.3 °F 30.8 °F 29.96 in SW 6.0 mph 17.0 mph 61 % 0.00 in 214.00 W/m2
15:50 43.1 °F 30.6 °F 29.96 in SW 5.0 mph 16.0 mph 61 % 0.00 in 183.00 W/m2
15:55 42.9 °F 30.8 °F 29.96 in South 15.0 mph 15.0 mph 62 % 0.00 in 176.00 W/m2
16:00 42.7 °F 31.0 °F 29.96 in SW 7.0 mph 16.0 mph 63 % 0.00 in 171.00 W/m2
16:05 42.6 °F 31.7 °F 29.95 in SW 4.0 mph 14.0 mph 65 % 0.00 in 153.00 W/m2
16:10 42.5 °F 31.6 °F 29.95 in Calm   14.0 mph 65 % 0.00 in 142.00 W/m2
16:15 42.5 °F 32.0 °F 29.95 in South 5.0 mph 12.0 mph 66 % 0.00 in 139.00 W/m2
16:20 42.4 °F 31.9 °F 29.95 in SW 6.0 mph 12.0 mph 66 % 0.00 in 113.00 W/m2
16:25 42.3 °F 32.1 °F 29.95 in SSW 8.0 mph 16.0 mph 67 % 0.00 in 109.00 W/m2
16:30 42.2 °F 31.7 °F 29.95 in SSW 6.0 mph 11.0 mph 66 % 0.00 in 118.00 W/m2
16:35 42.1 °F 32.0 °F 29.95 in SSW 5.0 mph 13.0 mph 67 % 0.00 in 102.00 W/m2
16:40 41.9 °F 31.8 °F 29.95 in SSW 6.0 mph 12.0 mph 67 % 0.00 in 84.00 W/m2
16:45 41.8 °F 32.0 °F 29.94 in SSE 8.0 mph 14.0 mph 68 % 0.00 in 84.00 W/m2
16:50 41.7 °F 32.3 °F 29.94 in Calm   11.0 mph 69 % 0.00 in 81.00 W/m2
16:55 41.6 °F 32.6 °F 29.94 in SSW 6.0 mph 11.0 mph 70 % 0.00 in 69.00 W/m2
17:00 41.5 °F 32.5 °F 29.94 in SSE 4.0 mph 12.0 mph 70 % 0.00 in 62.00 W/m2
17:05 41.4 °F 32.4 °F 29.94 in SSW 4.0 mph 12.0 mph 70 % 0.00 in 28.00 W/m2
17:10 41.3 °F 32.3 °F 29.94 in SSW 5.0 mph 17.0 mph 70 % 0.00 in 28.00 W/m2
17:15 41.2 °F 32.5 °F 29.94 in South 4.0 mph 7.0 mph 71 % 0.00 in 18.00 W/m2
17:20 41.1 °F 33.1 °F 29.94 in South 6.0 mph 11.0 mph 73 % 0.00 in 12.00 W/m2
17:25 41.0 °F 33.0 °F 29.94 in SSE 9.0 mph 12.0 mph 73 % 0.00 in 14.00 W/m2
17:30 40.9 °F 32.6 °F 29.94 in South 3.0 mph 17.0 mph 72 % 0.00 in 14.00 W/m2
17:35 40.8 °F 32.5 °F 29.94 in South 5.0 mph 13.0 mph 72 % 0.00 in 7.00 W/m2
17:40 40.8 °F 32.8 °F 29.94 in South 9.0 mph 10.0 mph 73 % 0.00 in 7.00 W/m2
17:45 40.7 °F 33.1 °F 29.94 in South 10.0 mph 10.0 mph 74 % 0.00 in 5.00 W/m2
17:50 40.6 °F 33.0 °F 29.94 in South 5.0 mph 11.0 mph 74 % 0.00 in 5.00 W/m2
17:55 40.6 °F 33.3 °F 29.94 in South 6.0 mph 10.0 mph 75 % 0.00 in 0.00 W/m2
18:00 40.5 °F 33.2 °F 29.94 in South 7.0 mph 14.0 mph 75 % 0.00 in 0.00 W/m2
18:05 40.5 °F 33.5 °F 29.94 in SSW 3.0 mph 11.0 mph 76 % 0.00 in 0.00 W/m2
18:10 40.4 °F 33.5 °F 29.94 in SSW 6.0 mph 13.0 mph 76 % 0.00 in 0.00 W/m2
18:16 40.3 °F 33.7 °F 29.93 in SSE 5.0 mph 12.0 mph 77 % 0.00 in 0.00 W/m2
18:21 40.2 °F 33.6 °F 29.94 in South 9.0 mph 14.0 mph 77 % 0.00 in 0.00 W/m2
18:26 40.1 °F 33.8 °F 29.93 in South 16.0 mph 19.0 mph 78 % 0.00 in 0.00 W/m2
18:31 40.0 °F 33.7 °F 29.93 in SSW 9.0 mph 14.0 mph 78 % 0.00 in 0.00 W/m2
18:36 39.8 °F 33.8 °F 29.94 in SSW 11.0 mph 16.0 mph 79 % 0.00 in 0.00 W/m2
18:41 39.8 °F 33.8 °F 29.93 in SSW 3.0 mph 13.0 mph 79 % 0.00 in 0.00 W/m2
18:46 39.7 °F 34.0 °F 29.93 in South 7.0 mph 19.0 mph 80 % 0.00 in 0.00 W/m2
18:51 39.6 °F 34.0 °F 29.93 in SSE 8.0 mph 20.0 mph 80 % 0.00 in 0.00 W/m2
18:56 39.5 °F 34.5 °F 29.93 in South 9.0 mph 15.0 mph 82 % 0.00 in 0.00 W/m2
19:01 39.4 °F 34.7 °F 29.93 in SSW 7.0 mph 15.0 mph 83 % 0.00 in 0.00 W/m2
19:06 39.3 °F 34.6 °F 29.93 in SSW 3.0 mph 13.0 mph 83 % 0.00 in 0.00 W/m2
19:11 39.3 °F 34.9 °F 29.93 in SSW 8.0 mph 17.0 mph 84 % 0.00 in 0.00 W/m2
19:16 39.2 °F 34.8 °F 29.93 in South 6.0 mph 12.0 mph 84 % 0.00 in 0.00 W/m2
19:21 39.1 °F 35.0 °F 29.93 in SSW 4.0 mph 13.0 mph 85 % 0.00 in 0.00 W/m2
19:26 39.1 °F 35.0 °F 29.93 in SSW 1.0 mph 13.0 mph 85 % 0.00 in 0.00 W/m2
19:31 39.0 °F 34.9 °F 29.93 in SSW 3.0 mph 17.0 mph 85 % 0.00 in 0.00 W/m2
19:36 38.9 °F 34.5 °F 29.93 in SSW 6.0 mph 19.0 mph 84 % 0.00 in 0.00 W/m2
19:41 38.9 °F 34.8 °F 29.93 in SSW 3.0 mph 17.0 mph 85 % 0.00 in 0.00 W/m2
19:46 38.8 °F 34.4 °F 29.93 in SW 10.0 mph 15.0 mph 84 % 0.00 in 0.00 W/m2
19:51 38.8 °F 34.4 °F 29.93 in SSW 12.0 mph 14.0 mph 84 % 0.00 in 0.00 W/m2
19:56 38.7 °F 34.3 °F 29.93 in WSW 3.0 mph 15.0 mph 84 % 0.00 in 0.00 W/m2
20:01 38.7 °F 34.6 °F 29.93 in Calm   14.0 mph 85 % 0.00 in 0.00 W/m2
20:06 38.6 °F 34.5 °F 29.93 in SW 2.0 mph 14.0 mph 85 % 0.00 in 0.00 W/m2
20:11 38.5 °F 34.4 °F 29.93 in SSW 8.0 mph 13.0 mph 85 % 0.00 in 0.00 W/m2
20:16 38.4 °F 34.6 °F 29.93 in WSW 4.0 mph 11.0 mph 86 % 0.00 in 0.00 W/m2
20:21 38.3 °F 34.5 °F 29.93 in South 10.0 mph 12.0 mph 86 % 0.00 in 0.00 W/m2
20:26 38.2 °F 34.4 °F 29.93 in SSW 4.0 mph 9.0 mph 86 % 0.00 in 0.00 W/m2
20:31 38.1 °F 34.6 °F 29.93 in SSW 5.0 mph 11.0 mph 87 % 0.00 in 0.00 W/m2
20:36 38.0 °F 34.5 °F 29.93 in SW 9.0 mph 15.0 mph 87 % 0.00 in 0.00 W/m2
20:41 38.0 °F 34.5 °F 29.93 in SW 1.0 mph 9.0 mph 87 % 0.00 in 0.00 W/m2
20:46 37.9 °F 34.4 °F 29.93 in SW 2.0 mph 12.0 mph 87 % 0.00 in 0.00 W/m2
20:51 37.9 °F 34.4 °F 29.93 in Calm   11.0 mph 87 % 0.00 in 0.00 W/m2
20:56 37.8 °F 34.3 °F 29.93 in SSW 5.0 mph 12.0 mph 87 % 0.00 in 0.00 W/m2
21:01 37.7 °F 34.2 °F 29.93 in SSW 1.0 mph 9.0 mph 87 % 0.00 in 0.00 W/m2
21:06 37.7 °F 34.2 °F 29.93 in SW 1.0 mph 9.0 mph 87 % 0.00 in 0.00 W/m2
21:11 37.6 °F 34.4 °F 29.92 in SW 10.0 mph 13.0 mph 88 % 0.00 in 0.00 W/m2
21:16 37.5 °F 34.3 °F 29.92 in South 2.0 mph 12.0 mph 88 % 0.00 in 0.00 W/m2
21:21 37.5 °F 34.3 °F 29.92 in Calm   11.0 mph 88 % 0.00 in 0.00 W/m2
21:26 37.4 °F 34.2 °F 29.92 in Calm   12.0 mph 88 % 0.00 in 0.00 W/m2
21:31 37.4 °F 34.2 °F 29.92 in South 1.0 mph 11.0 mph 88 % 0.00 in 0.00 W/m2
21:36 37.4 °F 34.2 °F 29.92 in South 9.0 mph 17.0 mph 88 % 0.00 in 0.00 W/m2
21:41 37.4 °F 34.5 °F 29.93 in SSW 7.0 mph 14.0 mph 89 % 0.00 in 0.00 W/m2
21:46 37.3 °F 34.4 °F 29.93 in South 6.0 mph 14.0 mph 89 % 0.00 in 0.00 W/m2
21:51 37.3 °F 34.4 °F 29.93 in SW 6.0 mph 13.0 mph 89 % 0.00 in 0.00 W/m2
21:56 37.2 °F 34.5 °F 29.93 in SSW 6.0 mph 10.0 mph 90 % 0.00 in 0.00 W/m2
22:01 37.1 °F 34.4 °F 29.93 in South 10.0 mph 11.0 mph 90 % 0.00 in 0.00 W/m2
22:06 37.0 °F 34.3 °F 29.93 in WSW 8.0 mph 12.0 mph 90 % 0.00 in 0.00 W/m2
22:11 36.9 °F 34.5 °F 29.93 in SSW 9.0 mph 15.0 mph 91 % 0.00 in 0.00 W/m2
22:16 36.8 °F 34.4 °F 29.93 in SSW 6.0 mph 14.0 mph 91 % 0.00 in 0.00 W/m2
22:21 36.7 °F 34.3 °F 29.93 in South 3.0 mph 14.0 mph 91 % 0.00 in 0.00 W/m2
22:26 36.5 °F 34.1 °F 29.93 in SW 7.0 mph 15.0 mph 91 % 0.00 in 0.00 W/m2
22:31 36.4 °F 34.0 °F 29.93 in Calm   12.0 mph 91 % 0.00 in 0.00 W/m2
22:36 36.4 °F 34.0 °F 29.93 in South 9.0 mph 13.0 mph 91 % 0.00 in 0.00 W/m2
22:41 36.3 °F 33.9 °F 29.93 in SSW 6.0 mph 14.0 mph 91 % 0.00 in 0.00 W/m2
22:46 36.2 °F 33.8 °F 29.93 in SSW 3.0 mph 19.0 mph 91 % 0.00 in 0.00 W/m2
22:51 36.1 °F 33.7 °F 29.93 in SSW 8.0 mph 13.0 mph 91 % 0.00 in 0.00 W/m2
22:56 36.0 °F 33.6 °F 29.93 in Calm   11.0 mph 91 % 0.00 in 0.00 W/m2
23:01 35.9 °F 33.5 °F 29.93 in SSW 12.0 mph 13.0 mph 91 % 0.00 in 0.00 W/m2
23:06 35.9 °F 33.5 °F 29.93 in SW 8.0 mph 13.0 mph 91 % 0.00 in 0.00 W/m2
23:11 35.9 °F 33.5 °F 29.93 in South 6.0 mph 11.0 mph 91 % 0.00 in 0.00 W/m2
23:16 35.8 °F 33.7 °F 29.93 in SSE 6.0 mph 12.0 mph 92 % 0.00 in 0.00 W/m2
23:21 35.7 °F 33.6 °F 29.93 in SSW 3.0 mph 12.0 mph 92 % 0.00 in 0.00 W/m2
23:26 35.7 °F 33.6 °F 29.93 in SSW 4.0 mph 9.0 mph 92 % 0.00 in 0.00 W/m2
23:31 35.7 °F 33.6 °F 29.93 in Calm   7.0 mph 92 % 0.00 in 0.00 W/m2
23:36 35.6 °F 33.5 °F 29.93 in SSW 2.0 mph 7.0 mph 92 % 0.00 in 0.00 W/m2
23:41 35.6 °F 33.5 °F 29.93 in SSW 7.0 mph 9.0 mph 92 % 0.00 in 0.00 W/m2
23:46 35.6 °F 33.5 °F 29.93 in SW 5.0 mph 10.0 mph 92 % 0.00 in 0.00 W/m2
23:51 35.6 °F 33.5 °F 29.93 in SSW 7.0 mph 9.0 mph 92 % 0.00 in 0.00 W/m2
23:56 35.5 °F 33.4 °F 29.93 in SSW 4.0 mph 13.0 mph 92 % 0.00 in 0.00 W/m2
Juneau County Weather
Compliments of Weather Underground - 4.5 mb
 WU-history PHP script courtesy of   Juneau County Weather.
powered by Cumulus v1.9.3 (1059)
Ambient Weather VWS v14.00
Top Contact Website Map Copyright © 2007 - 2018 Foresthillweather.com Never base important decisions on this or any weather information obtained from the Internet